« Back
NWS Peachtree City, Ga » Text Product » GA Regional Weather Roundup


Printer-friendly Version
Current Version              Previous Versions:   1  2  3  4  5  6  7  8  9  

Regional Weather Roundup

234
ASUS42 KFFC 252203
RWRGA
WEATHER ROUNDUP FOR GEORGIA
NATIONAL WEATHER SERVICE PEACHTREE CITY GA
600 PM EDT FRI JUL 25 2014

NOTE: "FAIR" INDICATES FEW OR NO CLOUDS BELOW 12,000 FEET WITH NO
SIGNIFICANT WEATHER AND/OR OBSTRUCTIONS TO VISIBILITY.

* = USE WITH CAUTION. THE STATIONS MARKED WITH AN ASTERISK MAY NOT
REPORT WEATHER SUCH AS PRECIPITATION, FOG, OR THUNDER AND ARE NOT
QUALITY CONTROLLED BY NWS.

THE REMARK "TC" DENOTES TEMPERATURE READING IN DEGREES CELSIUS.

GAZ001>058-252300-
NORTH GEORGIA

CITY           SKY/WX    TMP DP  RH WIND       PRES   REMARKS
ATLANTA        MOSUNNY   87  66  49 VRB5      30.00R
ATHENS         MOSUNNY   91  67  44 W5        29.99R HX  94
CHAMBLEE       SUNNY     88  62  41 W12       30.00R
PEACHTREE CITY MOSUNNY   88  67  49 NW7       29.99S HX  91
ROME           SUNNY     87  63  44 W6        29.99F
WEST ATLANTA   SUNNY     88  66  48 NW12      29.99R HX  90
GAINESVILLE    SUNNY     86  56  35 W12       30.04R
CARTERSVILLE   MOSUNNY   85  63  47 VRB3      30.01R


CITY           SKY/WX    TMP DP  RH WIND       PRES   REMARKS
DALTON*        MOSUNNY   82  64  54 CALM      30.00F
LAWRENCEVILLE* MOSUNNY   88  61  40 W7        30.00S
MARIETTA       PTSUNNY   86  65  49 NW9       30.01R
KENNESAW*      MOSUNNY   86  61  42 W12       30.02S
$$

GAZ059>098-102>109-252300-
CENTRAL GEORGIA

CITY           SKY/WX    TMP DP  RH WIND       PRES   REMARKS
AUGUSTA-BUSH   CLOUDY    88  72  58 NE3       29.95R HX  94
AUGUSTA-DANIEL CLOUDY    89  71  55 MISG      29.97R HX  95
COLUMBUS       PTSUNNY   87  71  58 W9        29.97R HX  93
MACON          PTSUNNY   87  73  62 SW5       29.96R HX  94
ROBINS AFB     MOSUNNY   91  73  54 SW8       29.96R HX  98


CITY           SKY/WX    TMP DP  RH WIND       PRES   REMARKS
LAGRANGE*      PTSUNNY   91  74  56 NW9       29.99R HX 101
SYLVANIA*      PTSUNNY   89  78  70 CALM      29.96S HX 102
MILLEDGEVILLE* HAZE      73  63  68 CALM      29.97R VSB<1/4
$$

GAZ099>101-110>166-252300-
SOUTH GEORGIA

CITY           SKY/WX    TMP DP  RH WIND       PRES   REMARKS
SAVANNAH       PTSUNNY   93  70  46 S13       29.96R HX  99
VALDOSTA       PTSUNNY   91  73  55 VRB6      29.99F HX  99
ALMA           MOSUNNY   93  68  43 SW9       29.97R HX  97
ST SIMONS      MOSUNNY   87  75  67 S12       29.99R HX  96
FT STEWART     PTSUNNY   93  69  45 S9        29.95R HX  98
ALBANY         PTSUNNY   88  74  63 W7        29.99R HX  96
HUNTER AFB     MOSUNNY   93  73  51 SW10      29.94R HX 101
MOODY AFB      PTSUNNY   87  81  81 SW10      29.99R HX 104
BRUNSWICK      SUNNY     90  73  58 SE13G20   29.98S HX  98


CITY           SKY/WX    TMP DP  RH WIND       PRES   REMARKS
BAINBRIDGE*    CLOUDY    88  77  70 SW6       29.98F HX 100
MOULTRIE*      MOSUNNY   84  77  79 S7        29.99F HX  94
VIDALIA*         N/A     91  70  49 W7        29.97R HX  97
WAYCROSS*      PTSUNNY   97  73  45 W9        29.97R HX 106
DOUGLAS*       PTSUNNY   90  70  51 SW7       29.99R HX  95
$$



USA.gov is the U.S. government's official web portal to all federal, state and local government web resources and services.